User: anonymous   Login
Location: Unspecified
(0.0000°N, 0.0000°E)
Time: 08:42:13
(UTC+00:00)
Language:

COSMOS 2437 - Orbit

View from above orbital plane
View from above orbital plane
View from above satellite
View from above satellite

Ground track
Ground track

The orbit data is extracted from the following two-line orbital elements,

1 32954U 08025B   17293.65051341  .00000013  00000-0  22710-4 0  9995
2 32954  82.5030 162.6577 0021122  25.6493 334.5633 12.42691756426905
Epoch (UTC): 20 October 2017 15:36:44
Eccentricity: 0.0021122
inclination: 82.5030°
perigee height: 1478 km
apogee height: 1512 km
right ascension of ascending node: 162.6577°
argument of perigee: 25.6493°
revolutions per day: 12.42691756
mean anomaly at epoch: 334.5633°
orbit number at epoch: 42690

The dashed part of the orbit path shows where the satellite is in the earth's shadow,  

DLR